Regional Weather Roundup
Issued by NWS

Home | Current Version | Previous Version | Graphics & Text | Print | Product List | Glossary On
Versions: 1 2 3 4 5 6 7 8 9 10 11 12 13 14 15 16 17 18 19 20 21 22 23 24 25 26 27
000
ASUS45 KSLC 292210
RWRUT

UTAH REGIONAL WEATHER ROUNDUP
NATIONAL WEATHER SERVICE SALT LAKE CITY UT
400 PM MDT MON AUG 29 2016

UTZ001>011-023>025-292300-

NORTHERN UTAH

CITY           SKY/WX    TMP DP  RH WIND       PRES   REMARKS
BRIGHAM CITY     N/A     92  21   7 W7        30.14F
HILL AFB       SUNNY     88  32  13 NW10      30.18F
LOGAN          SUNNY     90  25   9 VRB5      30.16F
OGDEN          SUNNY     91  31  11 N5        30.15F
PROVO AIRPORT  MOSUNNY  N/A N/A N/A VRB6      30.15F
SALT LAKE CITY MOSUNNY   95  28   9 NW12      30.13F
VERNAL         SUNNY     88  30  12 VRB5      30.18F
WENDOVER       SUNNY     91  34  13 SE10      30.16F
HEBER CITY     MOSUNNY   91  27   9 SW8       30.19F
WEST JORDAN    SUNNY     90  36  15 NW15      30.17F

$$

UTZ012>022-026-027-292300-

SOUTHERN/CENTRAL UTAH

CITY           SKY/WX    TMP DP  RH WIND       PRES   REMARKS
BLANDING       SUNNY     81  40  23 S8        30.31F
BRYCE CANYON   MOSUNNY   78  32  18 E9G24     30.38F
CEDAR CITY     MOSUNNY   91  31  11 N14       30.20F
DELTA          SUNNY     91  28  10 W12G17    30.16F
MILFORD        NOT AVBL
MOAB/CYNLANDS  SUNNY     90  38  16 VRB5      30.11F
PRICE          MOSUNNY   89  27  10 E9        30.22F
ST GEORGE      PTCLDY    99  39  12 CALM      30.02F HX  94

$$

REGIONAL REPORTS     COLORADO/ARIZONA

CITY           SKY/WX    TMP DP  RH WIND       PRES   REMARKS
CRAIG, CO      CLOUDY    82  29  14 MISG      30.28F
GRAND JUNCTION MOSUNNY   85  41  21 E13G22    30.18F
RIFLE          CLOUDY    80  42  25 N5        30.23F
MONTROSE       CLOUDY    72  45  37 N13       30.28S
CORTEZ         LGT RAIN  70  51  51 NE10      30.27S
PAGE, AZ       SUNNY     90  38  16 E13       30.13F
GRAND CANYON   SUNNY     78  43  28 E9        30.31F
KINGMAN        SUNNY     96  42  15 VRB7      30.05F HX  92
FLAGSTAFF      SUNNY     75  41  29 NE10G20   30.32F

$$

REGIONAL REPORTS    NEVADA/IDAHO/WYOMING

CITY           SKY/WX    TMP DP  RH WIND       PRES   REMARKS
LAS VEGAS, NV  MOSUNNY  103  33   9 E8        29.95F HX  96
ELY            SUNNY     88  22   9 CALM      30.26F
ELKO             N/A     93  20   7 W9        30.17F
POCATELLO, ID  CLOUDY    92  29  10 N8        30.18F
BURLEY         CLOUDY    87  37  17 NE5       30.11F
EVANSTON, WY   SUNNY     82  21  10 SE7G17    30.35F
ROCK SPRINGS   MOSUNNY   85  22  10 E9        30.33F

$$




USA.gov is the U.S. government's official web portal to all federal, state and local government web resources and services.